Tracking 28790 objects as of 19-Apr-2024
HD Live streaming from Space Station
objects crossing your sky now

SL-8 DEB

Track SL-8 DEB now!
10-day predictions


NORAD ID: 18545
Int'l Code: 1986-100C
Perigee: 861.4 km
Apogee: 884.9 km
Inclination: 82.9 °
Period: 102.3 minutes
Semi major axis: 7244 km
RCS: 0.0131 m2 (small)
Launch date: December 17, 1986
Source: Commonwealth of Independent States (former USSR) (CIS)
Launch site: PLESETSK MISSILE AND SPACE COMPLEX (PKMTR)

Note: This is SATELLITE DEBRIS
Your satellite tracking list
Your tracking list is empty




NASA's NSSDC Master Catalog

Two Line Element Set (TLE):
1 18545U 86100C   24109.80373391  .00006138  00000-0  35928-2 0  9995
2 18545  82.9260  33.7145 0016259  25.8773  29.9700 14.08065810894292
Source of the keplerian elements: AFSPC